Tecun Uman, Mexico

8:35 AM CST on February 23, 2017 (GMT -0600)
Tapachula International

Weather History for MMTP - May, 2013

Change the Weather History Date:

Monday, May 20, 2013

  Actual Average Record
Temperature  
Mean Temperature 86 °F -  
Max Temperature 93 °F 87 °F 93 °F (1997)
Min Temperature 80 °F 74 °F 73 °F (2000)
Cooling Degree Days 22    
Growing Degree Days 36 (Base 50)    
Moisture  
Dew Point 75 °F    
Average Humidity 74    
Maximum Humidity 84    
Minimum Humidity 52    
Precipitation  
Precipitation 0.00 in - - ()
Sea Level Pressure  
Sea Level Pressure 29.87 in    
Wind  
Wind Speed 2 mph ()    
Max Wind Speed 12 mph    
Max Gust Speed -    
Visibility 7.0 miles    
Events      
Averages and records for this station are not official NWS values.
T = Trace of Precipitation, MM = Missing Value Source: Averaged Metar Reports

Daily Weather History Graph

Daily Weather History Graph

Search for Another Location

Airport or City:

Trip Planner

Search our weather history database for the weather conditions in past years. The results will help you decide how hot, cold, wet, or windy it might be!

Date:

Astronomy

May. 20, 2013 Rise Set
Actual Time 6:39 AM CDT 7:31 PM CDT
Civil Twilight 6:16 AM CDT 7:54 PM CDT
Nautical Twilight 5:49 AM CDT 8:22 PM CDT
Astronomical Twilight 5:21 AM CDT 8:49 PM CDT
Moon 3:20 PM CDT (5/20) 2:48 AM CDT (5/20)
Length of Visible Light 13h 38m
Length of Day
12h 52m
Waxing Gibbous, 75% of the Moon is Illuminated
May 20
Waxing Gibbous
May 24
Full
May 31
Last Quarter
Jun 8
New
Jun 16
First Quarter

Hourly Weather History & Observations

Time (CDT) Temp. Heat Index Dew Point Humidity Pressure Visibility Wind Dir Wind Speed Gust Speed Precip Events Conditions
12:40 AM 82.4 °F 90.9 °F 77.0 °F 84% 29.86 in 7.0 mi Calm Calm - N/A   Scattered Clouds
1:40 AM 82.4 °F 90.9 °F 77.0 °F 84% 29.91 in 7.0 mi Calm Calm - N/A   Scattered Clouds
2:40 AM 82.4 °F 90.9 °F 77.0 °F 84% 29.89 in 7.0 mi Calm Calm - N/A   Scattered Clouds
3:40 AM 80.6 °F 86.2 °F 75.2 °F 84% 29.88 in 7.0 mi Calm Calm - N/A   Scattered Clouds
4:40 AM 80.6 °F 86.2 °F 75.2 °F 84% 29.88 in 7.0 mi Calm Calm - N/A   Scattered Clouds
5:40 AM 80.6 °F 86.2 °F 75.2 °F 84% 29.87 in 7.0 mi Calm Calm - N/A   Scattered Clouds
6:40 AM 80.6 °F 86.2 °F 75.2 °F 84% 29.93 in 7.0 mi Calm Calm - N/A   Scattered Clouds
7:40 AM 80.6 °F 86.2 °F 75.2 °F 84% 29.90 in 7.0 mi Calm Calm - N/A   Mostly Cloudy
8:42 AM 82.4 °F 90.9 °F 77.0 °F 84% 29.92 in 7.0 mi Calm Calm - N/A   Mostly Cloudy
9:40 AM 86.0 °F 95.1 °F 75.2 °F 70% 29.91 in 7.0 mi Calm Calm - N/A   Mostly Cloudy
10:40 AM 89.6 °F 98.2 °F 73.4 °F 59% 29.94 in 7.0 mi WSW 8.1 mph - N/A   Mostly Cloudy
11:40 AM 89.6 °F 102.2 °F 77.0 °F 66% 29.92 in 7.0 mi West 8.1 mph - N/A   Mostly Cloudy
12:45 PM 93.2 °F 105.0 °F 75.2 °F 56% 29.83 in 7.0 mi West 8.1 mph - N/A   Mostly Cloudy
1:40 PM 93.2 °F 102.4 °F 73.4 °F 52% 29.88 in 7.0 mi WSW 11.5 mph - N/A   Mostly Cloudy
2:40 PM 89.6 °F 99.8 °F 75.2 °F 62% 29.83 in 8.0 mi SSW 11.5 mph - N/A   Mostly Cloudy
3:40 PM 91.4 °F 102.5 °F 75.2 °F 59% 29.86 in 8.0 mi SSW 11.5 mph - N/A   Mostly Cloudy
4:40 PM 89.6 °F 99.8 °F 75.2 °F 62% 29.79 in 8.0 mi SSW 11.5 mph - N/A   Mostly Cloudy
5:40 PM 87.8 °F 97.6 °F 75.2 °F 66% 29.79 in 8.0 mi SSW 11.5 mph - N/A   Mostly Cloudy
6:40 PM 87.8 °F 97.6 °F 75.2 °F 66% 29.86 in 8.0 mi Calm Calm - N/A   Mostly Cloudy
7:40 PM 84.2 °F 92.3 °F 75.2 °F 74% 29.83 in 6.0 mi Calm Calm - N/A   Scattered Clouds
8:40 PM 82.4 °F 89.5 °F 75.2 °F 79% 29.85 in 6.0 mi Calm Calm - N/A   Scattered Clouds
9:45 PM 80.6 °F 86.2 °F 75.2 °F 84% 29.86 in 6.0 mi NNE 6.9 mph - N/A   Mostly Cloudy
10:45 PM - - - N/A% 29.86 in 7.0 mi Calm Calm - N/A   Mostly Cloudy
10:56 PM 82.4 °F 89.5 °F 75.2 °F 79% 29.86 in 7.0 mi Calm Calm - N/A   Mostly Cloudy
11:40 PM 80.6 °F 86.2 °F 75.2 °F 84% 29.86 in 6.0 mi Calm Calm - N/A   Mostly Cloudy